Find QuakeSat

NORAD ID: 27845 Int'l Des: 2003-031 Owner: QUAFI Country: US operational
LEOCIRCULARRETROGRADESSO

現在のビュー

3D地球を読み込み中...

QuakeSatについて

説明を読み込み中...

次回通過

Passes for default location (London). Set your location on the main map for personalized predictions.

高度履歴

Loading altitude history...

軌道要素

1 27845U 03031F 26150.95624587 .00000482 00000-0 22493-3 0 9990
2 27845 98.6628 159.9747 0007351 250.8060 109.2324 14.24934319189151
Epoch: May 30, 2026 • Age: 17 hours

現在のステータス

高度 816.5 km
速度 7.44 km/s
衛星直下点 -20.50°S, 39.17°E
打ち上げ日 Jun 30, 2003
運用期間 22.9 years
タイプ other

技術仕様

分類 Payload
質量 4.00 kg
乾燥質量 4.00 kg
総質量 4.00 kg
長さ 0.30 m
直径 0.10 m
スパン 0.60 m
形状 Box + Ant
製造者 STAN
バスタイプ Cubesat 3U
フェーズステータス In Orbit
所有者/国 QUAFI/US

Most Searched